This demonstration page uses our WeatherBlox Daily Observations layout. Learn more.

Left ArrowRight Arrow

39.08367, -84.50855

Hourly Observations for December 13, 2019

Temp ( °F °C ) Dew Point ( °F °C ) Humidity (%) Winds ( mph kmh ) Pressure ( in mb ) Visibility ( mi km ) Precip ( " mm )
12:53 am 00:53 Clear 27 -2.8 25 -3.9 92 92 N N/A 30.21 1023 10 16 N/A
1:53 am 01:53 Clear 24 -4.4 22 -5.6 91 91 N N/A 30.20 1023 10 16 N/A
2:53 am 02:53 Partly Cloudy 27 -2.8 25 -3.9 92 92 N N/A 30.19 1022 10 16 N/A
3:53 am 03:53 Cloudy 28 -2.2 26 -3.3 92 92 N N/A 30.17 1022 10 16 N/A
4:53 am 04:53 Cloudy 30 -1.1 28 -2.2 92 92 N N/A 30.15 1021 10 16 N/A
5:53 am 05:53 Cloudy 32 undefined 30 -1.1 92 92 N N/A 30.14 1021 10 16 N/A
6:53 am 06:53 Cloudy 33 0.6 31 -0.6 92 92 NE 3 6 30.13 1020 10 16 N/A
7:53 am 07:53 Cloudy 38 3.3 35 1.7 89 89 SSW 6 9 30.13 1020 10 16 N/A
8:53 am 08:53 Cloudy 41 5 38 3.3 89 89 S 6 9 30.13 1020 10 16 N/A
9:53 am 09:53 Cloudy 44 6.7 39 3.9 83 83 SSE 7 11 30.11 1020 10 16 N/A
10:53 am 10:53 Cloudy 45 7.2 39 3.9 80 80 SSE 5 7 30.09 1019 10 16 N/A
11:53 am 11:53 Mostly Sunny 47 8.3 39 3.9 74 74 SSE 3 6 30.05 1018 10 16 N/A
12:53 pm 12:53 Mostly Sunny 48 8.9 39 3.9 71 71 VRB 6 9 30.01 1016 10 16 N/A
1:53 pm 13:53 Mostly Cloudy 49 9.4 39 3.9 69 69 SE 7 11 29.98 1015 10 16 N/A
2:53 pm 14:53 Mostly Cloudy 49 9.4 38 3.3 66 66 ESE 6 9 29.95 1014 10 16 N/A
3:53 pm 15:53 Cloudy 48 8.9 37 2.8 66 66 SSE 5 7 29.93 1014 10 16 N/A
4:53 pm 16:53 Cloudy with Light Rain 45 7.2 41 5 86 86 ESE 3 6 29.91 1013 10 16 0.00 0.00
5:53 pm 17:53 Cloudy with Light Rain 43 6.1 41 5 93 93 N N/A 29.90 1012 7 11 0.01 0.25
6:53 pm 18:53 Cloudy 42 5.6 42 5.6 100 100 N N/A 29.88 1012 9 14 0.01 0.25
7:53 pm 19:53 Cloudy with Mist and Fog 42 5.6 42 5.6 100 100 N N/A 29.86 1011 5 8 N/A
8:18 pm 20:18 Cloudy with Light Rain 42 5.6 42 5.6 100 100 N N/A 29.87 1011 4 6 0.01 0.25
8:53 pm 20:53 Mostly Cloudy with Light Rain 42 5.6 41 5 96 96 N N/A 29.83 1010 4 6 0.03 0.76
9:41 pm 21:41 Cloudy with Light Rain 42 5.6 42 5.6 100 100 N N/A 29.83 1010 3 4 0.03 0.76
9:53 pm 21:53 Cloudy with Light Rain 42 5.6 42 5.6 100 100 N N/A 29.81 1010 3 4 0.04 1.02
10:20 pm 22:20 Cloudy with Light Rain 42 5.6 42 5.6 100 100 N N/A 29.83 1010 3 4 0.03 0.76
10:53 pm 22:53 Cloudy with Rain 42 5.6 42 5.6 100 100 N N/A 29.80 1009 3 4 0.07 1.78
11:16 pm 23:16 Cloudy with Light Rain 43 6.1 42 5.6 97 97 N N/A 29.80 1009 2 3 0.03 0.76
11:44 pm 23:44 Cloudy with Light Rain 42 5.6 42 5.6 100 100 NNE 5 7 29.79 1009 3 5 0.05 1.27
11:53 pm 23:53 Cloudy with Light Rain 43 6.1 42 5.6 97 97 NNE 5 7 29.76 1008 5 8 0.05 1.27

Powered by AerisWeather